Temperature
27 28 29 29 29 29 29 29 29 28 28 27 27 26 25 23 22 22 21 20 19 18 18 17 17 17 17 17 17 17 17 17 17 17 17 17 17 16 16 16 16 16 16 16
28 28 29 29 29 29 29 28 28 28 27 26 26 26 25 24 23 22 21 20 19 18 17 17 17 17 17 17 17 17 17 17 17 17 17 17 17 16 16 16 16 16 16 16
28 30 29 29 29 28 29 28 28 28 27 26 26 26 25 24 23 22 21 20 20 19 18 17 17 17 17 17 17 17 17 17 17 17 17 17 17 16 16 16 16 16 16 15
29 29 29 29 29 29 28 29 28 27 27 27 26 27 26 25 24 23 22 21 20 19 19 18 17 17 17 17 17 17 17 17 17 17 17 17 17 17 16 16 16 16 15 15
29 29 28 28 29 29 28 27 27 27 27 27 27 27 27 25 24 24 23 21 21 20 19 18 18 17 17 17 17 17 17 17 17 17 17 16 16 16 16 16 16 15 15 15
29 29 29 29 29 28 27 27 27 27 28 27 27 27 27 27 26 25 24 22 21 20 19 19 18 18 17 17 17 17 17 17 17 17 17 16 16 16 16 16 15 15 15 14
28 29 29 29 28 28 27 27 27 27 27 27 27 26 27 27 27 26 25 23 21 21 20 19 18 18 17 17 17 17 17 17 17 17 17 16 16 16 16 15 15 15 15 14
28 28 29 29 29 29 28 28 27 26 27 27 27 27 28 27 26 25 24 23 22 21 20 19 19 18 18 17 17 17 17 17 17 17 17 16 16 16 15 15 15 15 15 14
28 28 29 29 29 29 28 28 29 28 27 27 28 28 28 26 26 25 24 23 22 22 21 20 19 19 18 18 17 17 17 17 17 17 17 16 16 16 15 15 15 14 14 14
29 28 29 28 28 28 29 29 28 27 26 26 27 28 28 27 26 26 25 24 23 22 21 21 20 19 19 18 18 17 17 17 17 17 17 16 16 16 15 15 14 14 14 14
29 28 28 28 27 28 27 27 28 28 27 27 26 27 29 28 27 26 26 24 23 22 22 21 20 20 19 19 18 18 17 17 17 17 17 16 16 15 15 15 14 14 14 14
28 28 28 28 28 28 28 28 28 27 26 27 27 28 29 28 28 27 26 25 24 23 22 22 21 20 20 19 19 18 18 18 18 17 17 16 16 16 15 15 14 14 14 14
27 26 26 27 27 27 27 28 28 27 27 27 27 28 28 28 27 26 26 25 24 23 23 22 21 21 20 19 19 19 18 18 18 17 17 17 16 16 15 15 15 14 14 14
26 26 27 27 27 28 27 27 27 27 27 27 27 28 28 28 27 26 25 25 24 23 22 22 21 21 20 20 19 19 18 18 18 18 17 17 17 16 16 15 15 15 14 14
25 26 27 27 28 28 27 27 27 27 27 27 28 28 28 28 27 26 25 24 24 23 22 22 21 21 20 20 19 19 19 18 18 18 18 17 17 16 16 15 15 15 14 14
24 25 26 26 27 27 27 27 27 27 27 27 27 28 28 27 26 25 24 24 24 23 23 22 21 21 20 20 20 19 19 19 19 18 18 17 17 17 16 16 15 15 15 14
25 24 24 25 26 26 26 27 27 27 28 27 27 28 27 26 25 24 23 23 23 23 23 22 22 21 21 20 20 19 19 19 19 19 18 18 17 17 17 16 15 15 15 15
23 23 24 25 25 24 27 27 27 27 27 27 27 27 26 25 24 23 22 22 22 22 23 22 22 21 21 20 20 19 19 19 19 19 18 18 18 17 17 16 16 15 15 15
22 22 24 24 24 25 26 26 26 26 26 26 26 26 25 24 24 23 22 21 21 21 22 22 21 21 21 20 20 19 19 19 19 18 18 18 17 17 17 16 16 16 15 15
21 22 23 23 23 24 25 25 25 25 25 25 25 25 24 24 26 24 21 21 21 20 21 21 21 21 20 20 20 19 19 19 18 18 18 18 17 17 17 17 16 16 15 15
22 21 22 23 23 24 25 24 24 24 23 23 23 23 23 23 23 21 20 20 19 19 20 20 20 20 20 20 20 19 19 19 19 18 18 17 17 17 16 16 16 15 15 14
22 22 22 22 22 23 23 24 23 22 21 21 21 21 21 21 20 19 19 19 19 19 19 19 19 19 19 19 19 19 18 18 17 17 17 17 17 16 16 15 15 15 15 14
22 22 22 22 22 21 21 21 21 20 20 20 20 20 20 19 19 18 18 18 18 18 18 18 18 18 18 18 18 18 17 17 17 17 16 16 16 15 15 15 15 15 14 14
21 20 21 21 22 21 20 20 20 19 19 19 19 18 18 18 18 17 17 17 17 17 17 17 17 17 17 17 17 17 17 17 16 16 16 16 15 15 15 15 14 14 14 14
21 20 21 21 21 20 20 19 19 18 18 18 18 17 17 17 17 16 16 16 16 16 16 16 16 16 16 17 16 16 16 16 16 15 15 15 15 14 14 14 14 14 14 13
20 20 20 20 19 19 18 17 17 17 17 17 17 16 16 16 16 16 15 15 15 15 15 15 15 15 15 15 15 15 15 15 15 15 14 14 14 13 13 13 13 13 13 13
Wind_Speed
7 9 9 5 6 8 8 9 9 5 2 5 6 5 4 6 7 7 7 8 9 9 9 10 10 10 11 10 10 10 10 10 8 8 8 7 7 6 6 6 7 6 6 6
8 11 8 5 6 8 9 9 8 3 1 5 5 6 5 6 7 7 8 9 10 10 10 10 10 10 10 10 10 10 10 10 9 7 6 6 6 6 6 5 6 6 5 5
13 5 3 6 8 9 9 9 8 6 3 5 6 6 6 7 7 8 8 9 10 11 12 12 12 11 11 11 11 10 10 10 9 9 7 7 6 6 6 6 5 5 5 4
11 8 6 8 8 8 8 4 6 6 7 4 4 6 5 8 9 10 10 10 11 11 12 13 13 13 13 13 11 11 11 10 10 9 8 9 7 6 6 5 5 6 5 4
9 6 8 9 6 6 4 2 5 6 7 7 4 6 1 7 9 11 12 13 12 12 13 14 14 14 14 14 13 12 11 10 10 9 9 8 7 6 6 6 7 5 5 4
13 7 7 6 3 3 3 4 5 7 8 6 2 6 2 4 8 11 13 14 14 14 14 13 13 14 13 14 13 13 12 11 10 9 8 7 7 7 7 7 7 6 5 4
13 12 9 7 6 6 7 8 6 5 5 3 1 5 3 1 5 9 14 15 16 15 15 15 15 15 15 15 15 14 13 12 11 10 9 8 8 8 8 7 7 5 5 5
12 11 10 9 10 6 8 9 7 7 7 5 2 4 2 3 5 8 12 15 16 16 16 17 17 16 16 16 16 15 14 13 12 11 10 9 9 7 7 7 6 6 5 4
10 9 5 7 7 7 6 8 7 8 9 8 3 2 2 5 7 10 13 15 16 16 17 17 18 17 17 17 17 17 15 14 13 12 11 10 9 7 7 7 7 6 5 5
10 9 7 6 6 6 8 6 5 7 7 7 5 3 2 5 9 12 15 16 16 16 17 17 17 17 17 17 17 16 16 15 14 13 12 10 10 9 8 8 7 6 6 5
13 11 9 8 9 10 8 8 8 8 7 9 7 3 3 1 8 12 15 16 17 17 18 18 17 17 17 17 17 16 16 15 14 13 12 11 11 10 10 9 8 8 7 7
11 10 11 11 6 5 10 11 10 9 8 8 9 4 5 1 6 10 13 15 16 17 17 18 18 18 17 17 17 17 16 15 15 14 13 13 11 11 11 10 9 8 8 8
7 8 10 10 8 8 9 11 11 10 9 9 10 4 6 3 5 9 12 14 15 16 17 17 18 18 18 18 17 17 16 16 15 15 14 13 13 12 11 10 9 9 9 8
5 8 12 12 7 5 8 10 11 12 11 11 11 9 3 3 5 8 11 13 15 16 17 17 17 17 18 17 17 17 17 16 16 15 15 14 14 13 12 11 10 10 9 9
5 10 12 12 10 8 10 11 12 14 15 14 12 10 8 5 3 6 10 13 15 16 17 18 18 17 17 18 17 17 17 16 16 16 16 15 14 13 12 11 11 10 10 10
5 8 10 12 11 10 12 12 12 14 14 14 14 12 7 4 2 5 8 12 15 16 17 18 18 18 18 18 18 17 17 17 17 16 16 14 14 13 13 12 11 11 11 10
6 6 9 12 10 10 14 12 11 11 12 12 13 9 3 3 2 3 6 9 12 15 16 17 17 17 16 17 17 17 17 16 16 16 15 14 14 13 13 13 12 12 12 11
6 7 7 9 8 13 7 2 6 10 10 10 9 7 4 3 1 1 3 7 9 11 13 14 14 14 14 14 15 15 15 15 16 16 15 14 14 14 13 12 12 12 11 11
6 7 7 8 10 11 7 2 4 7 8 4 6 5 3 2 3 2 1 3 6 7 9 10 11 11 11 12 13 14 14 15 15 15 14 14 14 13 13 13 13 12 11 11
6 7 8 8 10 10 3 2 1 5 6 1 3 4 3 4 5 2 3 1 2 4 5 6 7 7 8 10 11 13 13 14 14 14 13 12 12 12 12 12 11 10 10 11
7 7 10 11 11 7 3 2 2 6 1 5 3 2 1 1 2 3 4 3 3 3 5 6 6 6 6 8 10 11 11 12 12 11 11 11 11 11 11 10 9 9 9 10
7 7 8 7 9 5 4 0 2 3 4 3 3 3 4 4 4 4 5 6 5 5 6 7 7 6 6 7 9 8 8 8 7 8 9 9 9 9 9 9 9 9 9 10
4 3 3 3 2 3 2 2 3 2 2 2 3 4 4 5 5 6 7 8 8 7 7 7 8 7 6 6 6 7 7 6 7 7 8 8 8 8 8 9 9 8 9 9
1 1 3 3 0 2 2 2 2 1 1 2 3 4 5 6 7 7 8 8 8 8 8 8 8 8 7 6 5 4 5 5 6 7 6 6 6 7 7 6 7 8 8 9
2 2 3 3 1 2 3 4 4 4 5 6 6 7 7 8 9 9 8 9 8 8 7 7 7 7 7 6 5 4 5 5 4 4 4 4 4 4 5 6 6 7 7 6
2 3 4 2 3 3 3 4 4 6 7 8 9 9 9 9 10 10 9 9 9 9 8 8 7 7 7 6 6 5 4 4 3 3 2 2 2 2 4 5 6 8 9 7
Wind_Direction
207 233 235 246 264 291 296 291 295 310 328 276 270 257 212 190 192 189 181 175 172 170 164 159 158 158 156 156 157 161 158 155 158 156 158 154 149 148 146 143 141 150 148 148
221 233 246 267 264 268 272 279 288 278 255 273 274 260 213 196 199 196 185 179 175 170 166 161 159 161 162 162 166 162 160 158 163 153 151 147 140 147 142 135 137 151 153 160
234 246 243 255 257 267 271 279 295 297 275 236 270 240 193 190 190 187 184 182 179 175 172 167 168 170 166 166 171 167 160 159 161 156 152 144 142 152 152 155 152 149 154 160
242 250 251 255 262 268 275 289 279 269 269 292 275 299 177 188 190 191 189 186 185 179 172 169 171 173 172 170 170 166 163 162 163 168 170 171 172 168 160 163 149 151 157 157
226 228 247 261 269 264 289 293 258 257 268 282 251 287 161 179 203 198 192 189 188 182 177 173 172 172 171 169 168 165 164 164 167 174 175 181 177 163 156 156 145 159 153 161
252 250 259 262 252 238 187 212 224 235 255 271 305 286 306 192 212 195 188 187 184 181 179 174 170 169 169 170 169 167 167 168 171 176 179 185 171 167 163 167 162 174 165 166
234 234 226 226 223 198 219 253 260 251 248 291 88 275 309 168 192 188 183 182 182 181 180 177 175 174 174 174 174 172 173 174 175 178 181 182 176 174 176 181 177 186 177 173
233 231 210 213 233 239 230 258 279 297 305 317 209 274 334 146 170 179 178 177 178 181 182 182 181 180 179 177 177 176 178 179 179 182 182 180 178 184 180 184 183 184 188 173
237 237 190 207 226 241 233 247 281 278 282 285 287 275 217 171 180 180 178 178 180 182 182 183 183 183 182 180 181 182 181 181 182 183 179 178 182 186 174 171 187 181 178 172
244 250 216 190 203 224 259 258 241 263 286 288 289 284 315 181 191 186 185 184 182 183 182 181 183 184 184 183 182 184 184 184 184 183 184 181 181 181 178 185 183 180 179 178
233 240 223 203 223 234 211 227 250 264 275 285 295 316 35 207 193 189 188 186 182 183 183 182 182 183 183 183 182 185 186 185 185 187 187 183 183 182 183 187 186 185 189 188
221 237 242 231 227 271 246 247 240 254 260 261 280 298 96 157 188 190 187 184 183 183 183 183 182 183 184 186 187 187 189 189 188 187 187 187 186 186 190 191 191 191 194 199
198 222 235 227 213 213 232 235 239 249 263 261 267 272 120 146 179 187 187 183 182 184 184 183 184 186 189 191 192 192 193 193 191 188 189 189 190 192 196 195 194 197 200 205
215 231 244 253 259 227 226 229 229 236 249 257 258 274 248 214 192 189 189 187 186 186 187 187 187 191 193 195 195 196 197 196 192 190 192 192 194 196 198 199 197 200 204 207
226 239 243 257 265 259 254 248 233 234 251 266 272 274 277 279 230 198 194 193 191 190 191 193 193 195 196 198 198 199 197 195 193 192 195 195 196 196 199 200 201 203 207 212
229 248 245 247 250 255 256 253 248 244 251 260 267 272 283 292 238 202 197 199 199 198 198 198 199 199 200 201 200 199 198 194 191 194 196 195 195 195 198 200 202 204 209 215
221 235 245 247 239 249 251 247 248 250 249 256 263 272 287 274 259 223 206 206 208 205 202 201 202 203 203 203 202 200 196 191 191 195 195 194 196 199 201 203 204 207 211 214
232 233 241 249 236 246 258 286 268 263 260 259 262 270 284 289 269 229 216 211 209 207 205 204 204 203 203 202 200 199 193 190 193 195 197 197 198 202 203 207 210 212 215 217
230 230 240 243 243 252 245 244 266 260 259 272 263 268 263 215 204 169 145 200 203 202 202 203 205 202 197 196 193 190 189 189 193 197 199 199 200 202 202 207 212 215 218 222
208 226 237 239 250 253 260 75 278 257 241 360 288 272 257 233 238 121 63 104 177 179 180 183 185 185 181 184 181 184 188 189 194 196 196 196 198 203 206 209 212 215 220 228
201 218 232 238 244 250 46 66 222 244 357 30 7 344 325 357 11 46 54 66 99 133 144 147 145 147 155 161 166 179 186 192 194 190 186 189 194 202 208 207 207 212 220 229
227 226 228 234 239 240 54 57 292 2 22 27 43 55 60 69 69 68 67 74 86 105 115 122 125 126 132 144 155 170 182 184 181 178 180 186 190 200 202 203 205 211 220 227
248 289 275 250 274 47 25 354 357 347 338 21 58 67 82 85 77 74 74 76 80 88 95 105 113 112 114 132 152 165 168 162 164 170 180 186 188 198 204 205 207 212 218 233
143 357 268 264 278 28 7 5 11 23 57 70 86 93 97 94 87 80 78 78 77 77 83 90 99 106 109 117 132 143 144 152 156 163 170 177 186 195 200 214 219 224 229 237
310 261 267 263 313 16 36 35 51 78 89 93 95 98 98 96 91 85 80 75 74 75 75 81 89 94 96 98 100 104 114 131 145 160 177 187 196 210 214 217 229 233 237 245
308 294 295 315 16 344 12 42 81 100 100 101 100 97 93 91 91 88 83 80 78 78 77 78 80 82 83 83 80 77 92 118 139 152 172 198 207 212 237 242 243 227 240 235
Height
1508 1506 1500 1496 1496 1496 1496 1497 1496 1495 1496 1498 1497 1498 1501 1505 1508 1510 1512 1514 1516 1518 1520 1522 1525 1528 1531 1534 1538 1541 1545 1548 1551 1554 1557 1559 1561 1563 1565 1567 1568 1570 1571 1572
1504 1501 1495 1496 1496 1497 1496 1497 1494 1494 1497 1497 1496 1496 1497 1502 1505 1507 1510 1512 1515 1518 1520 1522 1525 1528 1531 1533 1536 1541 1544 1547 1551 1553 1556 1558 1561 1563 1565 1566 1567 1569 1570 1571
1499 1493 1494 1495 1495 1496 1493 1494 1493 1495 1495 1495 1496 1494 1496 1499 1503 1506 1508 1511 1513 1516 1519 1522 1524 1527 1530 1533 1536 1541 1544 1547 1550 1553 1556 1558 1560 1562 1564 1566 1567 1568 1569 1570
1494 1491 1493 1493 1491 1492 1493 1489 1492 1494 1496 1491 1496 1497 1492 1494 1499 1503 1506 1509 1511 1514 1518 1520 1523 1526 1529 1533 1537 1540 1543 1547 1549 1552 1555 1558 1560 1562 1564 1565 1566 1566 1568 1568
1490 1490 1491 1492 1489 1490 1490 1491 1491 1491 1492 1492 1491 1494 1486 1491 1495 1497 1501 1505 1509 1513 1516 1519 1523 1526 1529 1533 1536 1540 1543 1546 1549 1551 1554 1557 1559 1561 1562 1563 1564 1565 1566 1567
1487 1487 1488 1486 1488 1489 1491 1492 1492 1490 1488 1497 1490 1494 1488 1483 1487 1490 1496 1502 1506 1510 1514 1518 1521 1525 1528 1532 1535 1539 1542 1545 1548 1550 1553 1555 1557 1559 1561 1562 1563 1565 1566 1566
1487 1483 1483 1485 1487 1489 1490 1493 1497 1498 1497 1494 1487 1491 1485 1477 1480 1485 1491 1498 1503 1508 1512 1516 1520 1523 1527 1530 1534 1537 1540 1543 1546 1549 1551 1553 1555 1557 1559 1561 1562 1564 1565 1565
1488 1487 1478 1481 1482 1483 1485 1487 1500 1507 1501 1489 1486 1488 1477 1477 1482 1486 1490 1495 1501 1505 1510 1513 1517 1521 1525 1528 1532 1535 1539 1542 1545 1547 1550 1552 1554 1556 1558 1559 1561 1562 1564 1564
1482 1483 1475 1478 1479 1480 1484 1483 1478 1488 1487 1492 1481 1478 1473 1477 1481 1485 1489 1493 1497 1502 1507 1511 1515 1519 1523 1527 1530 1533 1537 1540 1543 1545 1548 1550 1552 1554 1556 1557 1558 1560 1560 1561
1473 1482 1475 1477 1479 1480 1478 1476 1484 1488 1500 1499 1486 1480 1475 1475 1477 1480 1485 1489 1494 1499 1504 1508 1512 1517 1521 1525 1528 1532 1535 1538 1541 1543 1546 1548 1550 1551 1553 1555 1556 1557 1558 1558
1471 1479 1477 1477 1479 1476 1481 1481 1480 1479 1483 1493 1495 1483 1465 1468 1471 1476 1481 1486 1491 1496 1500 1505 1510 1514 1519 1522 1526 1529 1533 1535 1538 1541 1543 1546 1548 1549 1551 1552 1553 1554 1555 1556
1469 1472 1475 1472 1469 1472 1472 1473 1476 1486 1486 1484 1485 1479 1463 1466 1469 1473 1477 1483 1488 1493 1497 1502 1507 1511 1516 1519 1523 1526 1529 1532 1535 1538 1540 1543 1545 1547 1548 1550 1551 1552 1553 1554
1469 1475 1482 1480 1478 1475 1473 1470 1471 1474 1478 1480 1483 1476 1463 1466 1468 1472 1476 1480 1486 1490 1494 1499 1504 1508 1512 1516 1519 1523 1526 1529 1532 1535 1537 1540 1542 1544 1545 1547 1548 1549 1550 1551
1470 1471 1474 1478 1472 1465 1470 1469 1469 1473 1478 1475 1473 1468 1462 1464 1467 1471 1474 1478 1483 1487 1491 1495 1500 1504 1508 1512 1515 1519 1522 1525 1528 1531 1533 1536 1538 1540 1542 1544 1545 1546 1547 1548
1470 1469 1466 1462 1460 1461 1463 1464 1465 1469 1467 1469 1465 1462 1459 1460 1464 1469 1473 1476 1480 1484 1487 1491 1495 1499 1503 1507 1511 1514 1517 1521 1524 1527 1529 1532 1534 1537 1539 1540 1542 1543 1544 1545
1469 1469 1466 1466 1462 1461 1463 1460 1460 1462 1462 1462 1461 1460 1457 1460 1465 1468 1471 1473 1475 1479 1482 1486 1490 1494 1498 1501 1505 1509 1512 1515 1519 1522 1525 1528 1530 1532 1534 1536 1538 1539 1540 1541
1466 1469 1471 1468 1461 1465 1467 1457 1456 1456 1455 1457 1459 1457 1456 1460 1463 1466 1468 1470 1472 1474 1478 1482 1485 1489 1492 1496 1499 1503 1506 1510 1513 1517 1520 1523 1525 1528 1530 1532 1533 1535 1536 1537
1468 1469 1468 1464 1469 1481 1457 1449 1451 1453 1452 1452 1453 1455 1458 1461 1464 1465 1466 1468 1469 1471 1474 1478 1481 1485 1488 1492 1495 1498 1502 1505 1508 1512 1515 1517 1520 1523 1525 1527 1529 1530 1532 1533
1467 1468 1466 1466 1469 1463 1453 1451 1452 1454 1454 1452 1454 1456 1458 1461 1461 1463 1465 1466 1467 1469 1472 1475 1478 1480 1484 1487 1490 1493 1497 1500 1503 1506 1509 1512 1515 1518 1520 1522 1524 1526 1527 1528
1466 1466 1466 1466 1472 1470 1455 1452 1454 1456 1457 1456 1456 1457 1458 1459 1456 1460 1464 1465 1466 1468 1469 1472 1475 1477 1480 1483 1486 1489 1492 1495 1498 1502 1505 1508 1510 1513 1515 1517 1519 1520 1522 1523
1464 1465 1464 1464 1466 1456 1452 1454 1455 1462 1461 1459 1459 1459 1459 1459 1461 1464 1464 1464 1465 1466 1468 1470 1472 1475 1477 1479 1482 1485 1489 1491 1494 1497 1500 1503 1505 1507 1509 1511 1513 1515 1516 1517
1459 1460 1462 1461 1466 1463 1456 1454 1457 1461 1462 1461 1461 1461 1462 1463 1464 1464 1464 1464 1465 1466 1467 1468 1470 1472 1475 1476 1479 1482 1485 1488 1491 1493 1496 1498 1500 1503 1505 1506 1508 1509 1510 1511
1456 1456 1455 1458 1460 1459 1458 1459 1461 1462 1463 1463 1463 1463 1463 1464 1465 1465 1465 1465 1466 1467 1468 1469 1470 1472 1474 1476 1478 1481 1483 1485 1487 1490 1492 1494 1496 1498 1500 1501 1502 1503 1504 1505
1456 1460 1459 1458 1456 1459 1460 1461 1461 1462 1463 1464 1464 1464 1465 1465 1466 1466 1466 1467 1467 1468 1469 1470 1471 1473 1475 1476 1478 1480 1481 1483 1485 1487 1489 1490 1492 1493 1495 1496 1497 1498 1499 1500
1458 1459 1458 1459 1458 1460 1461 1462 1462 1463 1463 1464 1465 1466 1467 1467 1468 1468 1468 1468 1469 1469 1470 1471 1473 1474 1475 1476 1477 1479 1479 1481 1483 1485 1487 1488 1489 1490 1490 1491 1492 1493 1493 1494
1460 1461 1460 1459 1461 1462 1464 1464 1464 1464 1465 1466 1467 1469 1470 1470 1470 1470 1471 1471 1471 1472 1473 1473 1474 1475 1476 1476 1477 1478 1478 1479 1481 1483 1484 1485 1486 1486 1487 1487 1488 1487 1488 1487